Torna al catalogo

CZ-3B DEB

AttivoGTO
NORAD 40849·DEBRIS·🇨🇳 China

Lanciato Dec 19, 2011 da Xichang Satellite Launch Center

Loading…

TLE

In scadenzaSource: Space-Track

Epoca: Sep 14, 2026, 13:02 UTC

1 40849U 11077AE  26257.54343006 -.00000244  00000-0 -22157-2 0  9999
2 40849  26.4486 321.8672 7389206 103.9841 340.8139  1.90650432 93647

Traccia CZ-3B DEB in tempo reale con AllMySat

Download on the App Store